Kuiper-00135

operational
NORAD ID: 65961 Int'l Des: 2025-228 Owner: KUIP Country: US Constellation: kuiper
NOTLE

About Kuiper-00135

Description loading...

Live Position

Loading 3D Globe...

Upcoming Passes

Altitude History

Altitude vs Time

uPlot chart will show altitude changes over time

Two-Line Element Set

1 65961U 25228Q 25298.47792561 .00034082 00000-0 10206-2 0 9991
2 65961 51.8815 253.0867 0005062 181.2316 178.8658 15.34198271 3000
Epoch: Oct 25, 2025 • Age: 13 hours

Current Status

Altitude 469.8 km
Velocity 7.64 km/s
Sub-Earth Point 51.71°N, 68.09°W
Launch Date Oct 14, 2025
Age 11 days
Type internet

Technical Details

Classification Payload
Mass 490.00 kg
Dry Mass 490.00 kg
Total Mass 490.00 kg
Length 1.80 m
Diameter 0.70 m
Span 5.00 m
Shape Box + 2 pan
Manufacturer KUIP
Bus Type Kuiper
Phase Status In Orbit
Owner/State KUIP/US

Large Constellations

Loading constellations...